This is the latest recevied weather packets stored in our database for station/object KD4EG. If no packets are shown the sender has not sent any weather packets the latest 10 day(s).
| Time | Temp. | Humidity | Pressure | Rain* | Wind** | Luminosity | Snow |
|---|---|---|---|---|---|---|---|
| 1788049075 | 25° C | 81% | 1023.7 hPa | 0 mm | - | 0 W/m² | - |
| 1788048771 | 25° C | 81% | 1023.6 hPa | 0 mm | - | 0 W/m² | - |
| 1788048469 | 25.56° C | 79% | 1023.9 hPa | 0 mm | - | 0 W/m² | - |
| 1788048168 | 25.56° C | 78% | 1023.6 hPa | 0 mm | - | 0 W/m² | - |
| 1788047866 | 26.11° C | 76% | 1023.4 hPa | 0 mm | - | 0 W/m² | - |
| 1788047561 | 26.67° C | 73% | 1023.6 hPa | 0 mm | - | 2 W/m² | - |
| 1788047255 | 26.67° C | 71% | 1024 hPa | 0 mm | - | 5 W/m² | - |
| 1788046950 | 27.22° C | 70% | 1023.7 hPa | 0 mm | - | 7 W/m² | - |
| 1788046649 | 27.22° C | 69% | 1023.7 hPa | 0 mm | - | 11 W/m² | - |
| 1788046344 | 27.78° C | 68% | 1023.9 hPa | 0 mm | - | 13 W/m² | - |
| 1788046042 | 28.33° C | 67% | 1023.8 hPa | 0 mm | - | 19 W/m² | - |
| 1788045738 | 28.33° C | 65% | 1023.7 hPa | 0 mm | - | 24 W/m² | - |
| 1788045438 | 28.33° C | 65% | 1023.8 hPa | 0 mm | - | 28 W/m² | - |
| 1788045133 | 28.89° C | 64% | 1023.8 hPa | 0 mm | - | 33 W/m² | - |
| 1788044832 | 28.89° C | 63% | 1023.9 hPa | 0 mm | - | 40 W/m² | - |
| 1788044528 | 28.33° C | 64% | 1023.7 hPa | 0 mm | - | 43 W/m² | - |
| 1788044227 | 28.89° C | 63% | 1023.8 hPa | 0 mm | - | 49 W/m² | - |
| 1788043922 | 28.89° C | 62% | 1023.8 hPa | 0 mm | - | 46 W/m² | - |
| 1788043618 | 28.89° C | 63% | 1023.9 hPa | 0 mm | - | 62 W/m² | - |
| 1788043313 | 28.89° C | 63% | 1023.9 hPa | 0 mm | - | 70 W/m² | - |
| 1788043007 | 28.89° C | 63% | 1023.9 hPa | 0 mm | - | 85 W/m² | - |
| 1788042703 | 28.89° C | 63% | 1023.7 hPa | 0 mm | - | 68 W/m² | - |
| 1788042402 | 28.89° C | 62% | 1023.7 hPa | 0 mm | - | 104 W/m² | - |
| 1788042097 | 28.89° C | 63% | 1023.5 hPa | 0 mm | - | 111 W/m² | - |
| 1788041792 | 28.33° C | 63% | 1023.7 hPa | 0 mm | - | 119 W/m² | - |
* Rain latest hour (hover to see other rain measurements)
** Current wind speed in m/s (hover to see current wind gust speed)